Погода в Параньге

Россия / Республика Марий Эл     56°42′23″N   49°24′08″E
темп.,
°C
ветер,
м/с
пор.,
м/с
влажн.,
%
обл.,
%
осадки,
мм/ч
давл.,
гПа
погр.,
м
13 апреля, вт
вт1300:00+2в27100100 0.0 1038148
03:00+2вюв27100100 0.0 1038123
06:00+2юв37100100 0.0 1037146
09:00+4ююв26100100 0.0 1036125
12:00+7ю37100100 0.1 1035154
15:00+9ю4799100 0.1 1034180
18:00+6ю22100100 0.0 103218
21:00+4ю369979 0.0 103275
14 апреля, ср
ср1400:00+3ююз359883 0.0 103257
03:00+2ююз339757 0.0 103141
06:00+4ююз349494 0.0 103143
09:00+11ю368160 0.0 1030215
12:00+15ю466545 0.0 1028610
15:00+16ю36615 0.0 1027700
18:00+12ю33745 0.0 102518
21:00+9ю34865 0.0 102549
15 апреля, чт
чт1500:00+8ю34905 0.0 102450
03:00+7ююз22913 0.0 102322
06:00+8ю24925 0.0 102270
09:00+13ююз35750 0.0 1021416
12:00+16юз346346 0.0 10201154
15:00+15юз2368100 0.1 1019118
18:00+13ююз1175100 0.0 101812
21:00
16 апреля, пт
пт1600:00+10ссв3691100 0.1 1018130
03:00+8св5994100 0.2 1019357
06:00+6св51094100 1.8 1020436
09:00+6св5987100 4.6 1021516
12:00+8св5776100 0.0 1022769
15:00+8св5771100 0.0 1022836
18:00+7всв23735 0.0 102366
21:00+4ссв39700 0.0 1023172
17 апреля, сб
сб1700:00+2св377614 0.0 1025138
03:00+1св22795 0.0 102535
06:00+2с25764 0.0 1026155
09:00+7с46510 0.0 10251118
12:00+9с674376 0.0 10251921
15:00+8ссв684160 0.0 10251955
18:00+6ссв59475 0.0 1026469
21:00+2ссв396115 0.0 1028210